Weather History for KRXE - September, 2013

Change the Weather History Date:

Wednesday, September 4, 2013

  Actual Average Record
Temperature  
Mean Temperature 70 °F 60 °F  
Max Temperature 83 °F 77 °F 91 °F (1998)
Min Temperature 57 °F 44 °F 33 °F (2004)
Degree Days  
Heating Degree Days 0 5  
Month to date heating degree days 0 19  
Since 1 July heating degree days 0 92  
Cooling Degree Days 5 1  
Month to date cooling degree days 11 4  
Year to date cooling degree days 424 206  
Growing Degree Days 20 (Base 50)    
Moisture  
Dew Point 56 °F    
Average Humidity 64    
Maximum Humidity 93    
Minimum Humidity 34    
Precipitation  
Precipitation T in 0.03 in 0.23 in (2007)
Month to date precipitation 0.12 0.12  
Year to date precipitation 5.40 9.04  
Sea Level Pressure  
Sea Level Pressure 30.10 in    
Wind  
Wind Speed 3 mph (West)    
Max Wind Speed 12 mph    
Max Gust Speed 17 mph    
Visibility 10 miles    
Events Rain    
T = Trace of Precipitation, MM = Missing Value Source: NWS Daily Summary

Daily Weather History Graph

Daily Weather History Graph

Search for Another Location

Airport or City:

Trip Planner

Search our weather history database for the weather conditions in past years. The results will help you decide how hot, cold, wet, or windy it might be!

Date:

Astronomy

Sep. 04, 2013 Rise Set
Actual Time 6:54 AM MDT 7:56 PM MDT
Civil Twilight 6:24 AM MDT 8:26 PM MDT
Nautical Twilight 5:49 AM MDT 9:01 PM MDT
Astronomical Twilight 5:12 AM MDT 9:38 PM MDT
Moon 6:10 AM MDT (9/4) 7:17 PM MDT (9/4)
Length of Visible Light 14h 01m
Length of Day
13h 02m
Waning Crescent, 1% of the Moon is Illuminated
Sep 4
Waning Crescent
Sep 5
New
Sep 12
First Quarter
Sep 19
Full
Sep 26
Last Quarter

Hourly Weather History & Observations

Time (MDT) Temp. Heat Index Dew Point Humidity Pressure Visibility Wind Dir Wind Speed Gust Speed Precip Events Conditions
12:53 AM 61.0 °F - 57.9 °F 90% 30.09 in 10.0 mi NNW 3.5 mph - 0.00 in Rain Light Rain
1:53 AM 61.0 °F - 57.9 °F 90% 30.08 in 10.0 mi NNE 3.5 mph - 0.00 in   Overcast
2:53 AM 60.1 °F - 57.9 °F 93% 30.07 in 10.0 mi Calm Calm - N/A   Overcast
3:53 AM 60.1 °F - 57.0 °F 90% 30.07 in 10.0 mi Calm Calm - N/A   Clear
4:53 AM 57.9 °F - 55.9 °F 93% 30.09 in 10.0 mi Calm Calm - N/A   Clear
5:53 AM 57.0 °F - 55.0 °F 93% 30.11 in 10.0 mi Calm Calm - N/A   Clear
6:53 AM 57.9 °F - 55.9 °F 93% 30.15 in 10.0 mi ENE 3.5 mph - N/A   Clear
7:53 AM 60.1 °F - 57.0 °F 90% 30.17 in 10.0 mi Calm Calm - N/A   Clear
8:53 AM 63.0 °F - 57.9 °F 84% 30.17 in 10.0 mi ENE 4.6 mph - N/A   Clear
9:53 AM 66.9 °F - 57.9 °F 73% 30.17 in 10.0 mi Calm Calm - N/A   Clear
10:53 AM 71.1 °F - 57.0 °F 61% 30.17 in 10.0 mi SW 6.9 mph - N/A   Clear
11:53 AM 73.0 °F - 55.9 °F 55% 30.17 in 10.0 mi WSW 4.6 mph - N/A   Clear
12:53 PM 77.0 °F - 57.9 °F 52% 30.14 in 10.0 mi Calm Calm - N/A   Clear
1:53 PM 78.1 °F - 55.9 °F 46% 30.12 in 10.0 mi SW 9.2 mph - N/A   Clear
2:53 PM 80.1 °F 80.2 °F 55.9 °F 43% 30.11 in 10.0 mi WSW 9.2 mph - N/A   Clear
3:53 PM 82.0 °F 81.3 °F 54.0 °F 38% 30.09 in 10.0 mi WSW 6.9 mph - N/A   Clear
4:53 PM 81.0 °F - 52.0 °F 36% 30.07 in 10.0 mi WSW 8.1 mph - N/A   Clear
5:53 PM 82.0 °F - 51.1 °F 34% 30.05 in 10.0 mi SW 5.8 mph - N/A   Clear
6:53 PM 81.0 °F - 51.1 °F 35% 30.05 in 10.0 mi SW 4.6 mph - N/A   Clear
7:53 PM 77.0 °F - 53.1 °F 43% 30.05 in 10.0 mi Calm Calm - N/A   Clear
8:53 PM 71.1 °F - 57.9 °F 63% 30.06 in 10.0 mi Calm Calm - N/A   Clear
9:53 PM 69.1 °F - 55.9 °F 63% 30.07 in 10.0 mi Calm Calm - N/A   Clear
10:53 PM 64.9 °F - 55.0 °F 70% 30.06 in 10.0 mi Calm Calm - N/A   Clear
11:53 PM 62.1 °F - 55.0 °F 78% 30.07 in 10.0 mi NNE 4.6 mph - N/A   Clear